Weather History for McCall, ID

Change the Weather History Date:

Sunday, September 1, 2013

  Actual Average Record
Temperature  
Mean Temperature 65 °F 56 °F  
Max Temperature 85 °F 73 °F 90 °F (1991)
Min Temperature 45 °F 38 °F 27 °F (1989)
Degree Days  
Heating Degree Days 0 9  
Month to date heating degree days 0 9  
Since 1 July heating degree days 47 337  
Cooling Degree Days 0 0  
Month to date cooling degree days 0 0  
Year to date cooling degree days 180 25  
Growing Degree Days 15 (Base 50)    
Moisture  
Dew Point 37 °F    
Average Humidity 46    
Maximum Humidity 76    
Minimum Humidity 16    
Precipitation  
Precipitation 0.00 in 0.03 in 0.57 in (1944)
Month to date precipitation 0.00 0.03  
Year to date precipitation 11.57 13.07  
Sea Level Pressure  
Sea Level Pressure 29.92 in    
Wind  
Wind Speed 2 mph (SE)    
Max Wind Speed 9 mph    
Max Gust Speed 13 mph    
Visibility 10 miles    
Events      
T = Trace of Precipitation, MM = Missing Value Source: NWS Daily Summary

Daily Weather History Graph

Daily Weather History Graph

Search for Another Location

Airport:

Trip Planner

Search our weather history database for the weather conditions in past years. The results will help you decide how hot, cold, wet, or windy it might be!

Date:

Astronomy

Sep. 01, 2013 Rise Set
Actual Time 7:06 AM MDT 8:20 PM MDT
Civil Twilight 6:36 AM MDT 8:50 PM MDT
Nautical Twilight 6:00 AM MDT 9:27 PM MDT
Astronomical Twilight 5:21 AM MDT 10:05 PM MDT
Moon 3:26 AM MDT (9/1) 6:05 PM MDT (9/1)
Length of Visible Light 14h 14m
Length of Day
13h 13m
Waning Crescent, 13% of the Moon is Illuminated
Sep 1
Waning Crescent
Sep 5
New
Sep 12
First Quarter
Sep 19
Full
Sep 26
Last Quarter

Hourly Weather History & Observations

Time (MDT) Temp. Dew Point Humidity Pressure Visibility Wind Dir Wind Speed Gust Speed Precip Events Conditions
12:51 AM 54.0 °F 37.0 °F 53% 29.95 in 10.0 mi Calm Calm - N/A   Clear
1:51 AM 52.0 °F 37.9 °F 59% 29.95 in 10.0 mi Calm Calm - N/A   Clear
2:51 AM 51.1 °F 37.9 °F 61% 29.94 in 10.0 mi Calm Calm - N/A   Clear
3:51 AM 48.9 °F 37.0 °F 64% 29.94 in 10.0 mi Calm Calm - N/A   Clear
4:51 AM 46.0 °F 39.9 °F 79% 29.94 in 10.0 mi Calm Calm - N/A   Clear
5:51 AM 48.0 °F 37.0 °F 66% 29.94 in 10.0 mi Calm Calm - N/A   Clear
6:51 AM 46.9 °F 37.9 °F 71% 29.96 in 10.0 mi Calm Calm - N/A   Clear
7:51 AM 48.0 °F 37.0 °F 66% 29.97 in 10.0 mi Calm Calm - N/A   Clear
8:51 AM 52.0 °F 39.9 °F 63% 29.99 in 10.0 mi Calm Calm - N/A   Clear
9:51 AM 60.1 °F 42.1 °F 51% 29.96 in 10.0 mi South 3.5 mph - N/A   Clear
10:51 AM 70.0 °F 39.9 °F 33% 29.95 in 10.0 mi Calm Calm - N/A   Partly Cloudy
11:51 AM 77.0 °F 37.9 °F 24% 29.95 in 10.0 mi Calm Calm - N/A   Clear
12:51 PM 79.0 °F 35.1 °F 20% 29.94 in 10.0 mi SE 3.5 mph - N/A   Clear
1:51 PM 81.0 °F 39.9 °F 23% 29.92 in 10.0 mi South 4.6 mph - N/A   Clear
2:51 PM 82.0 °F 33.1 °F 17% 29.91 in 10.0 mi SE 5.8 mph - N/A   Clear
3:51 PM 82.9 °F 34.0 °F 17% 29.89 in 10.0 mi SE 3.5 mph - N/A   Clear
4:51 PM 84.9 °F 34.0 °F 16% 29.88 in 10.0 mi NW 5.8 mph - N/A   Partly Cloudy
5:51 PM 81.0 °F 30.9 °F 16% 29.88 in 10.0 mi WSW 4.6 mph - N/A   Clear
6:51 PM 82.0 °F 32.0 °F 16% 29.86 in 10.0 mi Variable 4.6 mph - N/A   Clear
7:51 PM 79.0 °F 32.0 °F 18% 29.86 in 10.0 mi Calm Calm - N/A   Clear
8:51 PM 72.0 °F 39.0 °F 30% 29.87 in 10.0 mi Calm Calm - N/A   Clear
9:51 PM 68.0 °F 37.0 °F 32% 29.87 in 10.0 mi Calm Calm - N/A   Clear
10:51 PM 66.0 °F 43.0 °F 43% 29.86 in 10.0 mi ENE 3.5 mph - N/A   Clear
11:51 PM 63.0 °F 43.0 °F 48% 29.85 in 10.0 mi NE 4.6 mph - N/A   Clear